FW4741 Weather Reports


Display with metric or nautical units.
time (UTC)temp
F
wind
direction
speed
MPH
gust
MPH
rain 1hr
in
rain 24hr
in
rain mn
in
humidity
%
barometer
mb
20260902030103 65 77 2.0 6.0 0.00 0.00 0.00 82 1024.8
20260902025604 65 77 2.0 6.0 0.00 0.00 0.00 81 1024.7
20260902025103 65 77 2.0 6.0 0.00 0.00 0.00 81 1024.6
20260902024602 65 77 2.0 6.0 0.00 0.00 0.00 81 1024.6
20260902024103 66 77 2.0 6.0 0.00 0.00 0.00 81 1024.5
20260902023602 66 77 2.0 6.0 0.00 0.00 0.00 81 1024.5
20260902023102 66 77 2.0 6.0 0.00 0.00 0.00 80 1024.4
20260902022603 66 77 2.0 6.0 0.00 0.00 0.00 80 1024.3
20260902022103 66 77 2.0 6.0 0.00 0.00 0.00 80 1024.3
20260902021603 66 77 2.0 6.0 0.00 0.00 0.00 80 1024.3
20260902020603 66 77 2.0 6.0 0.00 0.00 0.00 80 1024.2
20260902015103 67 77 2.0 6.0 0.00 0.00 0.00 79 1024.0
20260902013603 67 77 2.0 6.0 0.00 0.00 0.00 79 1023.9
20260902012102 68 77 2.0 6.0 0.00 0.00 0.00 76 1023.7
20260902011603 68 77 2.0 6.0 0.00 0.00 0.00 76 1023.7
20260902011103 68 77 2.0 6.0 0.00 0.00 0.00 76 1023.7
20260902010602 68 77 2.0 6.0 0.00 0.00 0.00 76 1023.7
20260902005602 68 77 2.0 6.0 0.00 0.00 0.00 76 1023.6
20260902005103 68 77 2.0 6.0 0.00 0.00 0.00 76 1023.5
20260902004603 68 77 2.0 6.0 0.00 0.00 0.00 75 1023.5
20260902004103 68 77 2.0 6.0 0.00 0.00 0.00 75 1023.4
20260902003603 68 77 2.0 6.0 0.00 0.00 0.00 75 1023.4
20260902003103 68 77 2.0 6.0 0.00 0.00 0.00 75 1023.4
20260902001603 68 77 2.0 6.0 0.00 0.00 0.00 76 1023.4
20260902001102 68 77 2.0 6.0 0.00 0.00 0.00 77 1023.3
20260902000602 68 77 2.0 6.0 0.00 0.00 0.00 77 1023.3
20260901235602 69 77 2.0 6.0 0.00 0.00 0.00 75 1023.2
20260901234602 69 77 2.0 6.0 0.00 0.00 0.00 73 1023.2
20260901234102 69 77 2.0 6.0 0.00 0.00 0.00 72 1023.2
20260901233603 69 77 2.0 6.0 0.00 0.00 0.00 72 1023.2
20260901233103 69 77 2.0 6.0 0.00 0.00 0.00 71 1023.2
20260901232603 70 77 2.0 6.0 0.00 0.00 0.00 71 1023.2
20260901232103 70 77 2.0 6.0 0.00 0.00 0.00 72 1023.1
20260901231604 70 77 2.0 6.0 0.00 0.00 0.00 72 1023.1
20260901231102 70 77 2.0 6.0 0.00 0.00 0.00 72 1023.1
20260901230602 70 77 2.0 6.0 0.00 0.00 0.00 72 1023.1
20260901225603 70 77 2.0 6.0 0.00 0.00 0.00 73 1023.1
20260901225102 70 77 2.0 6.0 0.00 0.00 0.00 73 1023.0
20260901224603 71 77 2.0 6.0 0.00 0.00 0.00 72 1023.0
20260901223602 73 77 2.0 6.0 0.00 0.00 0.00 71 1022.8
20260901223103 73 77 2.0 6.0 0.00 0.00 0.00 69 1022.8
20260901222602 73 77 2.0 6.0 0.00 0.00 0.00 69 1022.8
20260901222103 73 77 2.0 6.0 0.00 0.00 0.00 69 1022.8
20260901221603 74 77 2.0 6.0 0.00 0.00 0.00 69 1022.8
20260901221103 74 77 2.0 6.0 0.00 0.00 0.00 66 1022.9
20260901220603 74 77 2.0 6.0 0.00 0.00 0.00 66 1022.8
20260901215603 73 77 2.0 6.0 0.00 0.00 0.00 71 1022.9
20260901215103 74 77 2.0 6.0 0.00 0.00 0.00 70 1023.0
20260901214603 75 77 2.0 6.0 0.00 0.00 0.00 68 1023.0
20260901214102 76 77 2.0 6.0 0.00 0.00 0.00 61 1023.1
20260901213602 76 77 2.0 6.0 0.00 0.00 0.00 60 1023.0
20260901212603 76 77 2.0 6.0 0.00 0.00 0.00 59 1023.1
20260901212102 75 77 2.0 6.0 0.00 0.00 0.00 60 1023.1
20260901211603 75 77 2.0 6.0 0.00 0.00 0.00 62 1023.1
20260901211103 74 77 2.0 6.0 0.00 0.00 0.00 63 1023.2
20260901210602 74 77 2.0 6.0 0.00 0.00 0.00 64 1023.2
20260901205103 73 77 2.0 6.0 0.00 0.00 0.00 67 1023.2
20260901204602 73 77 2.0 6.0 0.00 0.00 0.00 67 1023.2
20260901204103 74 77 2.0 6.0 0.00 0.00 0.00 67 1023.3
20260901203102 74 77 2.0 6.0 0.00 0.00 0.00 68 1023.4
20260901202102 75 77 2.0 6.0 0.00 0.00 0.00 66 1023.4
20260901201602 75 77 2.0 6.0 0.00 0.00 0.00 66 1023.4
20260901200603 75 77 2.0 6.0 0.00 0.00 0.00 65 1023.5
20260901195603 75 77 2.0 6.0 0.00 0.00 0.00 65 1023.6
20260901195103 75 77 2.0 6.0 0.00 0.00 0.00 64 1023.6
20260901194603 74 77 2.0 6.0 0.00 0.00 0.00 66 1023.7
20260901194103 74 77 2.0 6.0 0.00 0.00 0.00 66 1023.7
20260901193102 74 77 2.0 6.0 0.00 0.00 0.00 64 1023.8
20260901192602 74 77 2.0 6.0 0.00 0.00 0.00 65 1023.8
20260901192103 75 77 2.0 6.0 0.00 0.00 0.00 63 1024.0
20260901191103 75 77 2.0 6.0 0.00 0.00 0.00 65 1024.0
20260901190103 75 77 2.0 6.0 0.00 0.00 0.00 65 1024.1
20260901185606 74 77 2.0 6.0 0.00 0.00 0.00 65 1024.1
20260901185103 74 77 2.0 6.0 0.00 0.00 0.00 65 1024.1
20260901184102 74 77 2.0 6.0 0.00 0.00 0.00 65 1024.2
20260901183603 74 77 2.0 6.0 0.00 0.00 0.00 65 1024.2
20260901183102 74 77 2.0 6.0 0.00 0.00 0.00 63 1024.2
20260901182103 75 77 2.0 6.0 0.00 0.00 0.00 62 1024.2
20260901181602 75 77 2.0 6.0 0.00 0.00 0.00 63 1024.3
20260901181103 74 77 2.0 6.0 0.00 0.00 0.00 61 1024.3
20260901180603 74 77 2.0 6.0 0.00 0.00 0.00 60 1024.2
20260901175602 74 77 2.0 6.0 0.00 0.00 0.00 61 1024.3
20260901175102 74 77 2.0 6.0 0.00 0.00 0.00 60 1024.3
20260901174602 74 77 2.0 6.0 0.00 0.00 0.00 60 1024.3
20260901174103 75 77 2.0 6.0 0.00 0.00 0.00 60 1024.3
20260901173602 75 77 2.0 6.0 0.00 0.00 0.00 61 1024.3
20260901173103 75 77 2.0 6.0 0.00 0.00 0.00 58 1024.3
20260901172603 74 77 2.0 6.0 0.00 0.00 0.00 59 1024.3
20260901172103 74 77 2.0 6.0 0.00 0.00 0.00 62 1024.3
20260901171603 74 77 2.0 6.0 0.00 0.00 0.00 61 1024.4
20260901171102 74 77 2.0 6.0 0.00 0.00 0.00 60 1024.4
20260901165102 74 77 2.0 6.0 0.00 0.00 0.00 61 1024.4
20260901164103 74 77 2.0 6.0 0.00 0.00 0.00 61 1024.4
20260901163103 73 77 2.0 6.0 0.00 0.00 0.00 62 1024.4
20260901162603 73 77 2.0 6.0 0.00 0.00 0.00 62 1024.4
20260901162103 73 77 2.0 6.0 0.00 0.00 0.00 63 1024.4
20260901161603 72 77 2.0 6.0 0.00 0.00 0.00 66 1024.4
20260901160603 72 77 2.0 6.0 0.00 0.00 0.00 62 1024.4
20260901155103 70 77 2.0 6.0 0.00 0.00 0.00 68 1024.4
20260901154602 70 77 2.0 6.0 0.00 0.00 0.00 67 1024.4
20260901154103 70 77 2.0 6.0 0.00 0.00 0.00 67 1024.5
20260901153602 69 77 2.0 6.0 0.00 0.00 0.00 68 1024.5
20260901153103 68 77 2.0 6.0 0.00 0.00 0.00 69 1024.5
20260901152602 68 77 2.0 6.0 0.00 0.00 0.00 70 1024.6
20260901152102 68 77 2.0 6.0 0.00 0.00 0.00 70 1024.6
20260901151602 67 77 2.0 6.0 0.00 0.00 0.00 71 1024.6
20260901151103 67 77 2.0 6.0 0.00 0.00 0.00 72 1024.6
20260901150602 67 77 2.0 6.0 0.00 0.00 0.00 71 1024.5
20260901145603 66 77 2.0 6.0 0.00 0.00 0.00 74 1024.5
20260901145102 65 77 2.0 6.0 0.00 0.00 0.00 74 1024.5
20260901144603 65 77 2.0 6.0 0.00 0.00 0.00 76 1024.5
20260901144102 65 77 2.0 6.0 0.00 0.00 0.00 76 1024.5
20260901143603 64 77 2.0 6.0 0.00 0.00 0.00 77 1024.5
20260901143103 64 77 2.0 6.0 0.00 0.00 0.00 77 1024.4
20260901142603 64 77 2.0 6.0 0.00 0.00 0.00 77 1024.4
20260901142103 63 77 2.0 6.0 0.00 0.00 0.00 78 1024.4
20260901141602 63 77 2.0 6.0 0.00 0.00 0.00 79 1024.4
20260901141103 62 77 2.0 6.0 0.00 0.00 0.00 79 1024.4
20260901134603 61 77 2.0 6.0 0.00 0.00 0.00 83 1024.4
20260901133602 60 77 2.0 6.0 0.00 0.00 0.00 84 1024.4
20260901133102 60 77 2.0 6.0 0.00 0.00 0.00 84 1024.4
20260901132103 60 77 2.0 6.0 0.00 0.00 0.00 84 1024.4
20260901131603 60 77 2.0 6.0 0.00 0.00 0.00 84 1024.4
20260901131103 60 77 2.0 6.0 0.00 0.00 0.00 84 1024.3
20260901130603 60 77 2.0 6.0 0.00 0.00 0.00 84 1024.3
20260901125603 60 77 2.0 6.0 0.00 0.00 0.00 84 1024.3
20260901125102 60 77 2.0 6.0 0.00 0.00 0.00 84 1024.4
20260901124602 60 77 2.0 6.0 0.00 0.00 0.00 84 1024.4
20260901124102 60 77 2.0 6.0 0.00 0.00 0.00 84 1024.4
20260901123603 60 77 2.0 6.0 0.00 0.00 0.00 84 1024.4
20260901123103 60 77 2.0 6.0 0.00 0.00 0.00 83 1024.4
20260901122603 60 77 2.0 6.0 0.00 0.00 0.00 84 1024.4
20260901122103 60 77 2.0 6.0 0.00 0.00 0.00 84 1024.4
20260901121603 60 77 2.0 6.0 0.00 0.00 0.00 85 1024.4
20260901121103 59 77 2.0 6.0 0.00 0.00 0.00 85 1024.4
20260901120603 59 77 2.0 6.0 0.00 0.00 0.00 85 1024.4
20260901115602 58 77 2.0 6.0 0.00 0.00 0.00 87 1024.3
20260901115103 58 77 2.0 6.0 0.00 0.00 0.00 88 1024.3
20260901114602 58 77 2.0 6.0 0.00 0.00 0.00 88 1024.2
20260901114103 58 77 2.0 6.0 0.00 0.00 0.00 88 1024.2
20260901113602 58 77 2.0 6.0 0.00 0.00 0.00 88 1024.2
20260901113103 58 77 2.0 6.0 0.00 0.00 0.00 88 1024.2
20260901112603 58 77 2.0 6.0 0.00 0.00 0.00 88 1024.2
20260901112103 58 77 2.0 6.0 0.00 0.00 0.00 88 1024.2
20260901111603 59 77 2.0 6.0 0.00 0.00 0.00 87 1024.2
20260901111103 59 77 2.0 6.0 0.00 0.00 0.00 87 1024.3
20260901105603 59 77 2.0 6.0 0.00 0.00 0.00 86 1024.3
20260901105104 59 77 2.0 6.0 0.00 0.00 0.00 86 1024.3
20260901104103 59 77 2.0 6.0 0.00 0.00 0.00 86 1024.3
20260901103102 60 77 2.0 6.0 0.00 0.00 0.00 86 1024.3
20260901102603 60 77 2.0 6.0 0.00 0.00 0.00 86 1024.3
20260901101602 60 77 2.0 6.0 0.00 0.00 0.00 87 1024.3
20260901101103 60 77 2.0 6.0 0.00 0.00 0.00 86 1024.3
20260901100603 60 77 2.0 6.0 0.00 0.00 0.00 86 1024.3
20260901095602 60 77 2.0 6.0 0.00 0.00 0.00 85 1024.4
20260901095102 60 77 2.0 6.0 0.00 0.00 0.00 85 1024.5
20260901094603 60 77 2.0 6.0 0.00 0.00 0.00 85 1024.4
20260901094103 60 77 2.0 6.0 0.00 0.00 0.00 85 1024.4
20260901093602 60 77 2.0 6.0 0.00 0.00 0.00 85 1024.4
20260901093103 60 77 2.0 6.0 0.00 0.00 0.00 86 1024.4
20260901092603 61 77 2.0 6.0 0.00 0.00 0.00 85 1024.4
20260901092103 61 77 2.0 6.0 0.00 0.00 0.00 84 1024.4
20260901091603 61 77 2.0 6.0 0.00 0.00 0.00 83 1024.4
20260901091103 61 77 2.0 6.0 0.00 0.00 0.00 83 1024.5
20260901090603 61 77 2.0 6.0 0.00 0.00 0.00 83 1024.4
20260901085603 60 77 2.0 6.0 0.00 0.00 0.00 85 1024.5
20260901085103 60 77 2.0 6.0 0.00 0.00 0.00 86 1024.5
20260901084103 60 77 2.0 6.0 0.00 0.00 0.00 84 1024.6
20260901083103 60 77 2.0 6.0 0.00 0.00 0.00 84 1024.5
20260901082602 60 77 2.0 6.0 0.00 0.00 0.00 84 1024.6
20260901081603 60 77 2.0 6.0 0.00 0.00 0.00 84 1024.7
20260901081102 60 77 2.0 6.0 0.00 0.00 0.00 84 1024.8
20260901080103 60 77 2.0 6.0 0.00 0.00 0.00 83 1024.8
20260901075602 60 77 2.0 6.0 0.00 0.00 0.00 84 1024.8
20260901075103 60 77 2.0 6.0 0.00 0.00 0.00 84 1024.8
20260901074102 60 77 2.0 6.0 0.00 0.00 0.00 85 1024.8
20260901073103 60 77 2.0 6.0 0.00 0.00 0.00 85 1024.9
20260901072603 60 77 2.0 6.0 0.00 0.00 0.00 85 1024.8
20260901072103 60 77 2.0 6.0 0.00 0.00 0.00 86 1024.8
20260901071603 60 77 2.0 6.0 0.00 0.00 0.00 86 1024.8
20260901071103 60 77 2.0 6.0 0.00 0.00 0.00 85 1024.8
20260901070603 60 77 2.0 6.0 0.00 0.00 0.00 85 1024.7
20260901070103 60 77 2.0 6.0 0.00 0.00 0.00 85 1024.7
20260901065602 61 77 2.0 6.0 0.00 0.00 0.00 85 1024.7
20260901065103 61 77 2.0 6.0 0.00 0.00 0.00 84 1024.7
20260901064603 61 77 2.0 6.0 0.00 0.00 0.00 84 1024.7
20260901063602 62 77 2.0 6.0 0.00 0.00 0.00 83 1024.7
20260901063103 62 77 2.0 6.0 0.00 0.00 0.00 83 1024.7
20260901062602 62 77 2.0 6.0 0.00 0.00 0.00 83 1024.7
20260901062103 62 77 2.0 6.0 0.00 0.00 0.00 83 1024.8
20260901061603 62 77 2.0 6.0 0.00 0.00 0.00 83 1024.7
20260901061103 62 77 2.0 6.0 0.00 0.00 0.00 82 1024.7
20260901060603 62 77 2.0 6.0 0.00 0.00 0.00 83 1024.7
20260901055602 62 77 2.0 6.0 0.00 0.00 0.00 83 1024.7
20260901055103 62 77 2.0 6.0 0.00 0.00 0.00 83 1024.7
20260901054602 63 77 2.0 6.0 0.00 0.00 0.00 82 1024.7
20260901054103 63 77 2.0 6.0 0.00 0.00 0.00 81 1024.7
20260901053602 63 77 2.0 6.0 0.00 0.00 0.00 82 1024.7
20260901053103 63 77 2.0 6.0 0.00 0.00 0.00 82 1024.7
20260901051603 63 77 2.0 6.0 0.00 0.00 0.00 82 1024.6
20260901051102 63 77 2.0 6.0 0.00 0.00 0.00 82 1024.6
20260901050603 63 77 2.0 6.0 0.00 0.00 0.00 83 1024.6
20260901045102 63 77 2.0 6.0 0.00 0.00 0.00 83 1024.6
20260901044603 63 77 2.0 6.0 0.00 0.00 0.00 83 1024.7
20260901044103 63 77 2.0 6.0 0.00 0.00 0.00 83 1024.7
20260901043603 63 77 2.0 6.0 0.00 0.00 0.00 83 1024.7
20260901043103 63 77 2.0 6.0 0.00 0.00 0.00 84 1024.7
20260901042603 63 77 2.0 6.0 0.00 0.00 0.00 84 1024.7
20260901042103 64 77 2.0 6.0 0.00 0.00 0.00 83 1024.8
20260901041603 64 77 2.0 6.0 0.00 0.00 0.00 83 1024.8
20260901041103 64 77 2.0 6.0 0.00 0.00 0.00 82 1024.8
20260901040603 64 77 2.0 6.0 0.00 0.00 0.00 82 1024.7
20260901035603 64 77 2.0 6.0 0.00 0.00 0.00 82 1024.6
20260901034102 65 77 2.0 6.0 0.00 0.00 0.00 81 1024.5
20260901033603 65 77 2.0 6.0 0.00 0.00 0.00 80 1024.5
20260901033102 65 77 2.0 6.0 0.00 0.00 0.00 80 1024.3
20260901032603 65 77 2.0 6.0 0.00 0.00 0.00 81 1024.3
20260901032103 65 77 2.0 6.0 0.00 0.00 0.00 82 1024.2
20260901031604 66 77 2.0 6.0 0.00 0.00 0.00 82 1024.2
20260901031103 66 77 2.0 6.0 0.00 0.00 0.00 81 1024.1
20260901030603 66 77 2.0 6.0 0.00 0.00 0.00 81 1024.1